DW9227 Weather Reports


Display with metric or nautical units.
time (UTC)temp
F
wind
direction
speed
MPH
gust
MPH
rain 1hr
in
rain 24hr
in
rain mn
in
humidity
%
barometer
mb
20191021210044 62 126 0.0 1.0 0.06 2.20 2.04 97 1022.6
20191021204556 61 126 0.0 2.0 0.05 2.31 2.04 97 1022.6
20191021203133 61 126 0.0 4.0 0.02 2.27 2.00 96 1022.4
20191021201546 61 126 0.0 0.0 0.28 2.27 2.00 96 1022.4
20191021200025 62 126 0.0 0.0 0.53 2.27 1.99 97 1022.3
20191021194557 61 126 0.0 0.0 0.56 2.29 1.99 96 1022.0
20191021193033 61 126 0.0 1.0 0.63 2.27 1.98 96 1021.8
20191021191537 61 126 0.0 1.0 0.36 2.00 1.70 97 1021.7
20191021190040 61 126 0.0 1.0 0.17 1.76 1.46 96 1021.9
20191021184524 62 126 0.0 1.0 0.15 1.72 1.41 97 1021.6
20191021183030 61 126 0.0 0.0 0.10 1.65 1.35 96 1021.8
20191021181558 61 126 0.0 3.0 0.11 1.65 1.34 96 1021.7
20191021180103 61 126 0.0 1.0 0.08 1.61 1.30 96 1021.7
20191021174531 62 126 0.0 1.0 0.06 1.57 1.26 96 1021.6
20191021173036 62 138 0.0 4.0 0.09 1.56 1.24 96 1021.6
20191021171521 62 127 0.0 5.0 0.10 1.54 1.23 96 1021.5
20191021170017 62 126 0.0 6.0 0.17 1.54 1.22 97 1021.3
20191021164521 61 196 0.0 0.0 0.23 1.55 1.20 96 1021.3
20191021163033 61 196 0.0 1.0 0.17 1.50 1.14 96 1021.4
20191021161545 61 196 0.0 0.0 0.16 1.47 1.12 96 1021.2
20191021160014 61 196 0.0 1.0 0.13 1.39 1.05 96 1021.2
20191021154517 61 196 0.0 2.0 0.09 1.46 0.98 96 1020.9
20191021153058 61 196 0.0 0.0 0.09 1.46 0.98 96 1020.8
20191021151544 61 196 0.0 0.0 0.09 1.45 0.97 96 1020.9
20191021150011 61 196 0.0 0.0 0.04 1.40 0.92 96 1021.0
20191021144526 61 196 0.0 0.0 0.00 1.39 0.88 96 1020.7
20191021143019 61 196 0.0 1.0 0.00 1.39 0.88 95 1020.6
20191021141509 61 196 0.0 3.0 0.01 1.39 0.88 95 1021.0
20191021140010 61 198 0.0 2.0 0.01 1.39 0.88 95 1021.3
20191021134518 62 202 0.0 1.0 0.01 1.52 0.88 95 1021.3
20191021133010 62 332 0.0 1.0 0.02 1.52 0.88 95 1021.4
20191021131523 61 281 0.0 2.0 0.02 1.51 0.87 95 1021.5
20191021130006 61 75 0.0 3.0 0.06 1.51 0.87 95 1021.6
20191021124504 61 100 0.0 3.0 0.08 1.72 0.87 95 1021.6
20191021123009 61 64 0.0 3.0 0.08 1.71 0.87 95 1021.6
20191021121505 61 86 0.0 2.0 0.06 1.69 0.85 95 1021.7
20191021120205 61 64 0.0 6.0 0.03 1.66 0.82 95 1021.8
20191021114652 61 83 0.0 5.0 0.02 1.79 0.80 95 1021.6
20191021113140 61 305 0.0 6.0 0.05 1.78 0.79 95 1021.7
20191021111637 61 57 0.0 4.0 0.06 1.78 0.79 95 1021.8
20191021110233 61 36 0.0 4.0 0.09 1.78 0.79 95 1021.7
20191021104659 60 67 0.0 5.0 0.08 1.92 0.77 96 1022.0
20191021103158 60 288 0.0 3.0 0.06 1.89 0.74 96 1021.9
20191021101620 60 53 0.0 6.0 0.07 1.87 0.72 96 1022.0
20191021100317 60 76 0.0 1.0 0.05 1.84 0.69 97 1021.8
20191021093051 60 76 0.0 3.0 0.09 1.87 0.68 96 1021.6
20191021091648 60 161 0.0 1.0 0.08 1.85 0.65 96 1021.6
20191021090122 60 161 0.0 2.0 0.08 1.84 0.65 96 1021.5
20191021084627 60 161 0.0 1.0 0.07 1.85 0.64 96 1021.4
20191021083125 60 155 0.0 3.0 0.02 1.80 0.59 96 1021.6
20191021081618 60 130 0.0 0.0 0.01 1.79 0.56 96 1021.3
20191021080124 60 130 0.0 0.0 0.00 1.78 0.56 96 1021.1
20191021074652 59 130 0.0 0.0 0.00 1.78 0.56 96 1020.8
20191021073054 59 130 0.0 1.0 0.00 1.78 0.56 96 1020.6
20191021071629 59 130 0.0 1.0 0.01 1.78 0.56 96 1020.3
20191021070045 59 130 0.0 0.0 0.01 1.78 0.56 97 1020.2
20191021064607 59 130 0.0 0.0 0.01 1.78 0.56 96 1020.3
20191021063044 59 130 0.0 0.0 0.01 1.78 0.56 96 1019.6
20191021061641 59 130 0.0 0.0 0.00 1.77 0.56 96 1019.2
20191021060119 59 130 0.0 0.0 0.00 1.77 0.56 96 1019.3
20191021054541 59 130 0.0 0.0 0.00 1.77 0.56 96 1019.2
20191021053039 59 130 0.0 0.0 0.00 1.77 0.56 96 1018.9
20191021051530 59 130 0.0 2.0 0.00 1.77 0.56 96 1019.0
20191021050058 59 130 0.0 0.0 0.00 1.77 0.56 96 1019.1
20191021044548 59 130 0.0 0.0 0.00 1.77 0.56 96 1018.9
20191021043022 59 130 0.0 1.0 0.00 1.77 0.56 96 1018.5
20191021041519 59 130 0.0 4.0 0.00 1.77 0.56 96 1018.3
20191021040033 59 150 0.0 3.0 0.02 1.77 0.56 96 1018.0
20191021034523 59 84 0.0 2.0 0.04 1.77 0.56 96 1017.3
20191021033013 59 166 0.0 5.0 0.06 1.77 0.56 96 1017.3
20191021031530 59 132 0.0 7.0 0.06 1.76 0.55 96 1017.4
20191021030008 59 136 0.0 5.0 0.07 1.75 0.54 96 1017.9
20191021024507 60 73 0.0 2.0 0.09 1.73 0.52 96 1018.2
20191021023016 60 91 0.0 3.0 0.12 1.72 0.50 96 1018.1
20191021021504 60 131 0.0 7.0 0.14 1.70 0.49 96 1018.1
20191021020015 60 176 0.0 2.0 0.16 1.67 0.46 96 1018.2
20191021014502 60 157 0.0 4.0 0.22 1.65 0.43 96 1018.0
20191021013143 60 68 0.0 3.0 0.23 1.61 0.39 96 1017.6
20191021011741 60 159 0.0 6.0 0.20 1.57 0.35 95 1017.7
20191021010158 60 130 0.0 3.0 0.19 1.53 0.30 96 1017.6
20191021004716 60 77 0.0 3.0 0.12 1.47 0.21 96 1017.6
20191021003229 60 44 0.0 2.0 0.08 1.42 0.16 96 1017.1
20191021001658 60 144 0.0 1.0 0.07 1.40 0.14 96 1017.6
20191021000154 60 146 0.0 6.0 0.05 1.37 0.11 96 1017.3
20191020234639 60 124 0.0 5.0 0.07 1.43 0.09 97 1017.1
20191020233148 59 153 0.0 0.0 0.06 1.41 0.08 96 1017.6
20191020231656 59 153 0.0 0.0 0.05 1.40 0.07 96 1017.5
20191020230107 59 153 0.0 1.0 0.06 1.39 0.06 96 1017.2
20191020224705 59 153 0.0 0.0 0.03 1.41 0.02 96 1017.6
20191020223212 59 153 0.0 1.0 0.09 1.41 0.02 96 1017.5
20191020221717 59 153 0.0 1.0 0.17 1.41 0.02 96 1017.6
20191020220219 59 153 0.0 1.0 0.15 1.39 0.00 96 1017.4
20191020214734 59 153 0.0 5.0 0.14 1.39 0.50 96 1017.9
20191020213132 59 154 0.0 2.0 0.12 1.32 0.43 96 1018.2
20191020211659 59 154 0.0 1.0 0.09 1.25 0.36 96 1018.1